Litchfield, MN

12:26 PM CST on February 10, 2016 (GMT -0600)
Litchfield Municipal

Weather History for KLJF - December, 2014

Change the Weather History Date:

Wednesday, December 24, 2014

  Actual Average Record
Temperature  
Mean Temperature 32 °F -  
Max Temperature 35 °F 21 °F 44 °F (1957)
Min Temperature 30 °F 3 °F -23 °F (1983)
Degree Days  
Heating Degree Days 32    
Moisture  
Dew Point 33 °F    
Average Humidity 99    
Maximum Humidity 100    
Minimum Humidity 93    
Precipitation  
Precipitation 0.00 in - - ()
Sea Level Pressure  
Sea Level Pressure 29.72 in    
Wind  
Wind Speed 7 mph (WNW)    
Max Wind Speed 12 mph    
Max Gust Speed -    
Visibility 9 miles    
Events Rain    
Averages and records for this station are not official NWS values.
T = Trace of Precipitation, MM = Missing Value Source: NWS Daily Summary

Daily Weather History Graph

Daily Weather History Graph

Search for Another Location

Airport or City:

Trip Planner

Search our weather history database for the weather conditions in past years. The results will help you decide how hot, cold, wet, or windy it might be!

Date:

Astronomy

Dec. 24, 2014 Rise Set
Actual Time 7:54 AM CST 4:40 PM CST
Civil Twilight 7:21 AM CST 5:14 PM CST
Nautical Twilight 6:43 AM CST 5:51 PM CST
Astronomical Twilight 6:07 AM CST 6:27 PM CST
Moon 9:39 AM CST (12/24) 8:13 PM CST (12/24)
Length of Visible Light 9h 53m
Length of Day
8h 45m
Waxing Crescent, 10% of the Moon is Illuminated
Dec 24
Waxing Crescent
Dec 28
First Quarter
Jan 4
Full
Jan 13
Last Quarter
Jan 20
New

Hourly Weather History & Observations

Time (CST) Temp. Windchill Dew Point Humidity Pressure Visibility Wind Dir Wind Speed Gust Speed Precip Events Conditions
12:12 AM 35.6 °F 28.6 °F 33.8 °F 93% 29.89 in 10.0 mi NNW 9.2 mph - N/A   Overcast
12:33 AM 35.6 °F 27.5 °F 33.8 °F 93% 29.88 in 10.0 mi NNW 11.5 mph - N/A   Overcast
12:53 AM 35.6 °F 28.6 °F 33.8 °F 93% 29.88 in 10.0 mi NNW 9.2 mph - N/A   Overcast
1:12 AM 35.6 °F 29.9 °F 33.8 °F 93% 29.87 in 10.0 mi NW 6.9 mph - N/A Rain Light Rain
1:33 AM 35.6 °F 29.2 °F 35.6 °F 100% 29.86 in 10.0 mi NW 8.1 mph - N/A   Overcast
1:53 AM 35.6 °F 29.2 °F 33.8 °F 93% 29.86 in 10.0 mi NW 8.1 mph - N/A   Light Drizzle
2:12 AM 35.6 °F 28.6 °F 35.6 °F 100% 29.85 in 10.0 mi NW 9.2 mph - N/A   Overcast
2:33 AM 35.6 °F 28.6 °F 33.8 °F 93% 29.86 in 10.0 mi NW 9.2 mph - N/A   Overcast
2:53 AM 35.6 °F 28.6 °F 33.8 °F 93% 29.85 in 10.0 mi NNW 9.2 mph - N/A   Overcast
3:12 AM 35.6 °F 28.6 °F 33.8 °F 93% 29.85 in 10.0 mi NW 9.2 mph - N/A   Overcast
3:33 AM 33.8 °F 25.8 °F 33.8 °F 100% 29.85 in 10.0 mi NW 10.4 mph - N/A   Overcast
3:53 AM 33.8 °F 25.8 °F 33.8 °F 100% 29.85 in 10.0 mi NW 10.4 mph - N/A   Overcast
4:12 AM 33.8 °F 27.0 °F 33.8 °F 100% 29.85 in 10.0 mi NW 8.1 mph - N/A   Drizzle
4:33 AM 33.8 °F 26.4 °F 33.8 °F 100% 29.84 in 10.0 mi NNW 9.2 mph - N/A   Overcast
4:53 AM 33.8 °F 27.7 °F 33.8 °F 100% 29.84 in 7.0 mi North 6.9 mph - N/A   Overcast
5:13 AM 33.8 °F 27.7 °F 33.8 °F 100% 29.83 in 7.0 mi North 6.9 mph - N/A   Overcast
5:32 AM 33.8 °F 29.6 °F 33.8 °F 100% 29.83 in 7.0 mi North 4.6 mph - N/A   Overcast
5:53 AM 33.8 °F 30.8 °F 33.8 °F 100% 29.83 in 7.0 mi NNW 3.5 mph - N/A   Overcast
6:13 AM 33.8 °F 30.8 °F 33.8 °F 100% 29.82 in 10.0 mi NNW 3.5 mph - N/A   Overcast
6:33 AM 33.8 °F 27.0 °F 33.8 °F 100% 29.82 in 10.0 mi NNW 8.1 mph - N/A   Overcast
6:53 AM 33.8 °F 27.7 °F 33.8 °F 100% 29.82 in 10.0 mi NNW 6.9 mph - N/A   Overcast
7:13 AM 33.8 °F 28.6 °F 33.8 °F 100% 29.82 in 10.0 mi North 5.8 mph - N/A   Overcast
7:33 AM 33.8 °F 27.7 °F 33.8 °F 100% 29.81 in 10.0 mi North 6.9 mph - N/A   Overcast
7:53 AM 33.8 °F 29.6 °F 33.8 °F 100% 29.80 in 10.0 mi North 4.6 mph - N/A   Overcast
8:12 AM 33.8 °F 29.6 °F 33.8 °F 100% 29.80 in 10.0 mi NNW 4.6 mph - N/A   Overcast
8:33 AM 33.8 °F 28.6 °F 33.8 °F 100% 29.80 in 10.0 mi NNW 5.8 mph - N/A   Overcast
8:53 AM 33.8 °F 27.7 °F 33.8 °F 100% 29.79 in 10.0 mi NNW 6.9 mph - N/A   Overcast
9:12 AM 33.8 °F 28.6 °F 33.8 °F 100% 29.79 in 10.0 mi NW 5.8 mph - N/A   Overcast
9:53 AM 33.8 °F 28.6 °F 33.8 °F 100% 29.78 in 10.0 mi NW 5.8 mph - N/A   Overcast
10:12 AM 33.8 °F 28.6 °F 33.8 °F 100% 29.78 in 3.0 mi NW 5.8 mph - N/A   Overcast
10:33 AM 33.8 °F 27.7 °F 33.8 °F 100% 29.78 in 3.0 mi WNW 6.9 mph - N/A   Overcast
10:53 AM 33.8 °F 28.6 °F 33.8 °F 100% 29.77 in 1.5 mi WNW 5.8 mph - N/A   Overcast
11:12 AM 33.8 °F 27.7 °F 33.8 °F 100% 29.76 in 0.8 mi WNW 6.9 mph - N/A   Overcast
11:33 AM 33.8 °F 27.0 °F 33.8 °F 100% 29.75 in 0.8 mi WNW 8.1 mph - N/A   Overcast
11:53 AM 33.8 °F 27.0 °F 33.8 °F 100% 29.74 in 3.0 mi WNW 8.1 mph - N/A   Overcast
12:12 PM 33.8 °F 26.4 °F 33.8 °F 100% 29.72 in 7.0 mi WNW 9.2 mph - N/A   Overcast
12:33 PM 33.8 °F 29.6 °F 33.8 °F 100% 29.70 in 10.0 mi WNW 4.6 mph - N/A   Overcast
12:53 PM 33.8 °F 28.6 °F 33.8 °F 100% 29.68 in 10.0 mi WNW 5.8 mph - N/A   Overcast
1:12 PM 33.8 °F 28.6 °F 33.8 °F 100% 29.67 in 10.0 mi NW 5.8 mph - N/A   Overcast
1:33 PM 33.8 °F 27.7 °F 33.8 °F 100% 29.67 in 10.0 mi WNW 6.9 mph - N/A   Overcast
1:53 PM 33.8 °F 28.6 °F 33.8 °F 100% 29.66 in 10.0 mi WNW 5.8 mph - N/A   Overcast
2:12 PM 33.8 °F 27.7 °F 33.8 °F 100% 29.66 in 7.0 mi WNW 6.9 mph - N/A   Overcast
2:33 PM 33.8 °F 27.7 °F 33.8 °F 100% 29.65 in 10.0 mi WNW 6.9 mph - N/A   Overcast
2:53 PM 33.8 °F 27.0 °F 33.8 °F 100% 29.66 in 10.0 mi West 8.1 mph - N/A   Overcast
3:12 PM 33.8 °F 28.6 °F 33.8 °F 100% 29.65 in 10.0 mi West 5.8 mph - N/A   Overcast
3:33 PM 33.8 °F 27.0 °F 33.8 °F 100% 29.64 in 10.0 mi West 8.1 mph - N/A   Overcast
3:53 PM 33.8 °F 27.7 °F 32.0 °F 93% 29.64 in 10.0 mi West 6.9 mph - N/A   Overcast
4:13 PM 33.8 °F 27.7 °F 32.0 °F 93% 29.65 in 10.0 mi West 6.9 mph - N/A   Overcast
4:33 PM 32.0 °F 25.6 °F 32.0 °F 100% 29.64 in 10.0 mi West 6.9 mph - N/A   Overcast
4:53 PM 32.0 °F - 32.0 °F 100% 29.63 in 10.0 mi Calm Calm - N/A   Overcast
5:13 PM 32.0 °F - 32.0 °F 100% 29.63 in 10.0 mi Calm Calm - N/A   Overcast
5:33 PM 32.0 °F 27.5 °F 30.2 °F 93% 29.63 in 10.0 mi WSW 4.6 mph - N/A   Overcast
5:53 PM 32.0 °F 27.5 °F 30.2 °F 93% 29.62 in 10.0 mi WSW 4.6 mph - N/A   Overcast
6:13 PM 32.0 °F 27.5 °F 30.2 °F 93% 29.62 in 10.0 mi WSW 4.6 mph - N/A   Overcast
6:33 PM 30.2 °F 26.7 °F 30.2 °F 100% 29.62 in 10.0 mi SW 3.5 mph - N/A   Overcast
6:53 PM 30.2 °F - 30.2 °F 100% 29.61 in 10.0 mi Calm Calm - N/A   Overcast
7:13 PM 30.2 °F - 30.2 °F 100% 29.60 in 10.0 mi Calm Calm - N/A   Overcast
7:33 PM 30.2 °F 26.7 °F 30.2 °F 100% 29.60 in 7.0 mi SW 3.5 mph - N/A   Overcast
7:53 PM 30.2 °F 25.4 °F 30.2 °F 100% 29.60 in 10.0 mi SW 4.6 mph - N/A   Overcast
8:13 PM 30.2 °F 25.4 °F 30.2 °F 100% 29.60 in 10.0 mi SW 4.6 mph - N/A   Overcast
8:33 PM 30.2 °F 25.4 °F 30.2 °F 100% 29.59 in 10.0 mi SW 4.6 mph - N/A   Overcast
8:53 PM 30.2 °F 25.4 °F 30.2 °F 100% 29.59 in 10.0 mi WSW 4.6 mph - N/A   Overcast
9:13 PM 30.2 °F 26.7 °F 30.2 °F 100% 29.58 in 10.0 mi SW 3.5 mph - N/A   Overcast
9:33 PM 30.2 °F 25.4 °F 30.2 °F 100% 29.58 in 10.0 mi SSW 4.6 mph - N/A   Overcast
9:53 PM 30.2 °F 24.3 °F 30.2 °F 100% 29.58 in 10.0 mi SW 5.8 mph - N/A   Overcast
10:13 PM 30.2 °F 23.4 °F 30.2 °F 100% 29.58 in 10.0 mi SW 6.9 mph - N/A   Overcast
10:33 PM 30.2 °F 23.4 °F 30.2 °F 100% 29.58 in 10.0 mi SW 6.9 mph - N/A   Overcast
10:53 PM 30.2 °F 24.3 °F 30.2 °F 100% 29.58 in 10.0 mi SW 5.8 mph - N/A   Overcast
11:13 PM 30.2 °F 24.3 °F 30.2 °F 100% 29.57 in 10.0 mi SW 5.8 mph - N/A   Overcast
11:33 PM 30.2 °F - 30.2 °F 100% 29.57 in 10.0 mi Calm Calm - N/A   Overcast
11:53 PM 30.2 °F 24.3 °F 30.2 °F 100% 29.57 in 10.0 mi SSW 5.8 mph - N/A   Overcast